Chamberlain, SD

7:42 AM CDT on October 23, 2017 (GMT -0500)
Chamberlain

Weather History for K9V9 - July, 2013

Change the Weather History Date:

Thursday, July 4, 2013

  Actual Average Record
Temperature  
Mean Temperature 78 °F -  
Max Temperature 93 °F 83 °F 97 °F (2012)
Min Temperature 64 °F 59 °F 44 °F (1997)
Cooling Degree Days 12    
Growing Degree Days 28 (Base 50)    
Moisture  
Dew Point 57 °F    
Average Humidity 51    
Maximum Humidity 70    
Minimum Humidity 34    
Precipitation  
Precipitation 0.00 in - - ()
Sea Level Pressure  
Sea Level Pressure 29.77 in    
Wind  
Wind Speed 12 mph (South)    
Max Wind Speed 20 mph    
Max Gust Speed 124 mph    
Averages and records for this station are not official NWS values.
T = Trace of Precipitation, MM = Missing Value Source: NWS Daily Summary

Daily Weather History Graph

Daily Weather History Graph

Search for Another Location

Airport or City:

Trip Planner

Search our weather history database for the weather conditions in past years. The results will help you decide how hot, cold, wet, or windy it might be!

Date:

Astronomy

Jul. 04, 2013 Rise Set
Actual Time 6:00 AM CDT 9:22 PM CDT
Civil Twilight 5:25 AM CDT 9:57 PM CDT
Nautical Twilight 4:38 AM CDT 10:44 PM CDT
Astronomical Twilight 3:40 AM CDT 11:42 PM CDT
Moon 3:21 AM CDT (7/4) 6:25 PM CDT (7/4)
Length of Visible Light 16h 32m
Length of Day
15h 21m
Waning Crescent, 11% of the Moon is Illuminated
Jul 4
Waning Crescent
Jul 8
New
Jul 15
First Quarter
Jul 22
Full
Jul 29
Last Quarter

Hourly Weather History & Observations

Time (CDT) Temp. Heat Index Dew Point Humidity Pressure Visibility Wind Dir Wind Speed Gust Speed Precip Events Conditions
12:52 AM 66.0 °F - 55.9 °F 70% 29.85 in - SE 10.4 mph - N/A   Unknown
1:52 AM 68.0 °F - 54.0 °F 61% 29.85 in - South 13.8 mph - N/A   Unknown
2:52 AM 66.9 °F - 53.1 °F 61% 29.83 in - SSE 11.5 mph - N/A   Unknown
3:52 AM 66.9 °F - 52.0 °F 59% 29.82 in - SSE 12.7 mph - N/A   Unknown
4:52 AM 64.9 °F - 51.1 °F 61% 29.81 in - SSE 11.5 mph - N/A   Unknown
5:52 AM 66.0 °F - 50.0 °F 56% 29.80 in - South 10.4 mph - N/A   Unknown
6:52 AM 64.9 °F - 51.1 °F 61% 29.80 in - SSE 11.5 mph - N/A   Unknown
7:52 AM 70.0 °F - 52.0 °F 53% 29.80 in - SSE 6.9 mph - N/A   Unknown
8:52 AM 72.0 °F - 52.0 °F 49% 29.80 in - South 12.7 mph - N/A   Unknown
9:52 AM 75.9 °F - 54.0 °F 46% 29.78 in - South 15.0 mph - N/A   Unknown
10:52 AM 80.1 °F 80.1 °F 55.0 °F 42% 29.78 in - SSW 12.7 mph 18.4 mph N/A   Unknown
11:52 AM 82.9 °F 82.6 °F 57.9 °F 42% 29.77 in - SSW 11.5 mph - N/A   Unknown
12:52 PM 87.1 °F 86.5 °F 59.0 °F 39% 29.75 in - SSW 13.8 mph - N/A   Unknown
1:52 PM 88.0 °F 87.6 °F 60.1 °F 39% 29.74 in - South 15.0 mph - N/A   Unknown
2:52 PM 91.0 °F 90.5 °F 60.1 °F 35% 29.73 in - South 8.1 mph - N/A   Unknown
3:29 PM 89.6 °F 89.5 °F 60.8 °F 38% 29.76 in - South 11.5 mph 124.3 mph N/A   Squalls
3:52 PM 90.0 °F 89.7 °F 60.1 °F 37% 29.71 in - South 9.2 mph 25.3 mph N/A   Unknown
4:52 PM 91.0 °F 90.2 °F 59.0 °F 34% 29.70 in - South 8.1 mph - N/A   Unknown
5:52 PM 89.1 °F 89.3 °F 62.1 °F 40% 29.69 in - SSE 8.1 mph 27.6 mph N/A   Unknown
6:52 PM 81.0 °F 81.9 °F 62.1 °F 52% 29.72 in - SSW 19.6 mph 27.6 mph N/A   Unknown
7:52 PM 79.0 °F - 60.1 °F 52% 29.71 in - South 17.3 mph - N/A   Unknown
8:52 PM 75.9 °F - 61.0 °F 60% 29.73 in - South 12.7 mph - N/A   Unknown
9:52 PM 73.9 °F - 60.1 °F 62% 29.74 in - SSW 10.4 mph - N/A   Unknown
10:52 PM 73.9 °F - 57.9 °F 57% 29.75 in - SW 13.8 mph - N/A   Unknown
11:52 PM 70.0 °F - 57.0 °F 63% 29.76 in - SW 6.9 mph - N/A   Unknown